Regional Weather Roundup
Issued by NWS

Home | Current Version | Previous Version | Text Only | Print | Product List | Glossary On
Versions: 1 2 3 4 5 6 7 8 9 10 11 12 13 14 15 16 17 18 19 20 21 22 23 24 25 26 27 28 29 30 31 32 33 34 35 36 37 38 39 40 41 42 43 44 45 46 47 48 49 50
000
ASUS44 KOUN 292310
RWROK

WEATHER ROUNDUP FOR OKLAHOMA
NATIONAL WEATHER SERVICE NORMAN OK
600 PM CDT THU SEP 29 2016

NOTE: "FAIR" INDICATES FEW OR NO CLOUDS BELOW 12,000 FEET WITH NO
      SIGNIFICANT WEATHER AND/OR OBSTRUCTIONS TO VISIBILITY.

OKZ001>007-009>012-014-015-017-300000-
NORTHWEST OKLAHOMA AND THE PANHANDLE

CITY           SKY/WX    TMP DP  RH WIND       PRES   REMARKS
GAGE           SUNNY     73  41  31 VRB5      30.30F
GUYMON         MOSUNNY   73  43  33 SE7       30.30F
ENID/WOODRING  PTSUNNY   70  50  49 N12       30.27F
$$

OKZ016-021>023-033>039-044-045-300000-
SOUTHWEST OKLAHOMA

CITY           SKY/WX    TMP DP  RH WIND       PRES   REMARKS
LAWTON/REGL    SUNNY     73  47  39 N13       30.27S
LAWTON/FT SILL SUNNY     72  51  46 N8        30.26S
FREDERICK      MOSUNNY   75  48  38 N10       30.25S
CLINTON        SUNNY     71  47  42 N9        30.32S
HOBART         SUNNY     72  48  42 NE9       30.29F
ALTUS AFB      MOSUNNY   74  46  36 N7        30.28F
$$

OKZ018>020-024>031-300000-
CENTRAL OKLAHOMA

CITY           SKY/WX    TMP DP  RH WIND       PRES   REMARKS
OKLAHOMA CITY  PTSUNNY   71  47  42 N8        30.26F
OKC/WILEY POST SUNNY     72  47  40 N12       30.27F
OKC/TINKER AFB SUNNY     72  46  38 NE10      30.25F
STILLWATER     SUNNY     73  47  39 N7G22     30.27F
GUTHRIE        SUNNY     71  49  45 NE6       30.27F
$$

OKZ008-013-054>072-300000-
NORTHEAST OKLAHOMA

CITY           SKY/WX    TMP DP  RH WIND       PRES   REMARKS
TULSA          MOSUNNY   73  47  39 N9        30.24S
TULSA/JONES    SUNNY     74  47  38 N5        30.25F
PONCA CITY     SUNNY     73  47  39 NE9       30.27F
BARTLESVILLE   SUNNY     71  47  42 N8        30.27F
MUSKOGEE       SUNNY     74  47  38 N13       30.24S
$$

OKZ032-040>043-046>053-073>077-300000-
SOUTH CENTRAL/SOUTHEAST OKLAHOMA

CITY           SKY/WX    TMP DP  RH WIND       PRES   REMARKS
ARDMORE/DWNTWN SUNNY     72  45  37 NE7       30.24S
MCALESTER      SUNNY     74  47  38 N14       30.24S
$$





USA.gov is the U.S. government's official web portal to all federal, state and local government web resources and services.